Weather History for Melfa, VA

Change the Weather History Date:

Friday, June 21, 2013

  Actual Average (KWAL) Record (KWAL)
Temperature  
Mean Temperature 68 °F 74 °F  
Max Temperature 78 °F 82 °F 96 °F (2012)
Min Temperature 57 °F 66 °F 53 °F (2005)
Degree Days  
Heating Degree Days 0    
Month to date heating degree days  
Since 1 June heating degree days  
Since 1 July heating degree days  
Cooling Degree Days 2    
Month to date cooling degree days  
Year to date cooling degree days  
Since 1 June cooling degree days  
Growing Degree Days 18 (Base 50)    
Moisture  
Dew Point 61 °F    
Average Humidity 76    
Maximum Humidity 94    
Minimum Humidity 57    
Precipitation  
Precipitation 0.00 in 0.10 in 0.03 in (1999)
Month to date precipitation 2.38  
Year to date precipitation 18.20  
Sea Level Pressure  
Sea Level Pressure 30.28 in    
Wind  
Wind Speed 5 mph (ENE)    
Max Wind Speed 14 mph    
Max Gust Speed 17 mph    
Visibility 10 miles    
Events      
T = Trace of Precipitation, MM = Missing Value Source: NWS Daily Summary

Daily Weather History Graph

Daily Weather History Graph

Search for Another Location

Airport:

Trip Planner

Search our weather history database for the weather conditions in past years. The results will help you decide how hot, cold, wet, or windy it might be!

Date:

Astronomy

Jun. 21, 2013 Rise Set
Actual Time 5:41 AM EDT 8:28 PM EDT
Civil Twilight 5:10 AM EDT 8:59 PM EDT
Nautical Twilight 4:31 AM EDT 9:38 PM EDT
Astronomical Twilight 3:47 AM EDT 10:22 PM EDT
Moon 6:37 PM EDT (6/21) 3:53 AM EDT (6/21)
Length of Visible Light 15h 48m
Length of Day
14h 46m
Waxing Gibbous, 95% of the Moon is Illuminated
Jun 21
Waxing Gibbous
Jun 23
Full
Jun 30
Last Quarter
Jul 8
New
Jul 15
First Quarter

Hourly Weather History & Observations

Time (EDT) Temp. Dew Point Humidity Pressure Visibility Wind Dir Wind Speed Gust Speed Precip Events Conditions
12:16 AM 60.8 °F 57.2 °F 88% 30.27 in 10.0 mi Calm Calm - N/A   Clear
12:36 AM 60.8 °F 57.2 °F 88% 30.27 in 10.0 mi ESE 3.5 mph - N/A   Clear
12:56 AM 62.6 °F 59.0 °F 88% 30.26 in 10.0 mi ESE 3.5 mph - N/A   Clear
1:16 AM 62.6 °F 60.8 °F 94% 30.26 in 10.0 mi Calm Calm - N/A   Clear
1:36 AM 60.8 °F 57.2 °F 88% 30.26 in 10.0 mi Calm Calm - N/A   Clear
1:56 AM 60.8 °F 57.2 °F 88% 30.26 in 10.0 mi Calm Calm - N/A   Clear
2:16 AM 57.2 °F 55.4 °F 94% 30.27 in 7.0 mi North 3.5 mph - N/A   Clear
2:36 AM 59.0 °F 57.2 °F 94% 30.28 in 7.0 mi North 3.5 mph - N/A   Clear
2:56 AM 60.8 °F 57.2 °F 88% 30.28 in 10.0 mi North 3.5 mph - N/A   Clear
3:16 AM 60.8 °F 57.2 °F 88% 30.27 in 10.0 mi Calm Calm - N/A   Clear
3:36 AM 59.0 °F 57.2 °F 94% 30.28 in 7.0 mi North 4.6 mph - N/A   Clear
3:56 AM 60.8 °F 57.2 °F 88% 30.27 in 10.0 mi NE 4.6 mph - N/A   Scattered Clouds
4:16 AM 60.8 °F 57.2 °F 88% 30.27 in 10.0 mi Calm Calm - N/A   Mostly Cloudy
4:37 AM 62.6 °F 59.0 °F 88% 30.26 in 10.0 mi Calm Calm - N/A   Scattered Clouds
4:56 AM 60.8 °F 57.2 °F 88% 30.27 in 7.0 mi NNE 3.5 mph - N/A   Clear
5:16 AM 60.8 °F 57.2 °F 88% 30.26 in 7.0 mi NNE 3.5 mph - N/A   Clear
5:36 AM 60.8 °F 57.2 °F 88% 30.26 in 10.0 mi NE 4.6 mph - N/A   Clear
5:56 AM 60.8 °F 57.2 °F 88% 30.26 in 7.0 mi Calm Calm - N/A   Clear
6:16 AM 60.8 °F 57.2 °F 88% 30.27 in 10.0 mi NE 3.5 mph - N/A   Clear
6:36 AM 60.8 °F 59.0 °F 94% 30.27 in 7.0 mi North 4.6 mph - N/A   Clear
6:56 AM 62.6 °F 59.0 °F 88% 30.27 in 10.0 mi NNE 4.6 mph - N/A   Mostly Cloudy
7:16 AM 62.6 °F 60.8 °F 94% 30.28 in 10.0 mi NE 5.8 mph - N/A   Overcast
7:36 AM 66.2 °F 60.8 °F 83% 30.28 in 10.0 mi NE 4.6 mph - N/A   Scattered Clouds
7:56 AM 68.0 °F 62.6 °F 83% 30.29 in 10.0 mi NE 6.9 mph - N/A   Clear
8:16 AM 69.8 °F 62.6 °F 78% 30.29 in 10.0 mi ENE 8.1 mph - N/A   Scattered Clouds
8:36 AM 71.6 °F 64.4 °F 78% 30.29 in 10.0 mi ENE 9.2 mph - N/A   Scattered Clouds
8:56 AM 71.6 °F 64.4 °F 78% 30.29 in 10.0 mi ENE 9.2 mph - N/A   Scattered Clouds
9:16 AM 73.4 °F 64.4 °F 73% 30.29 in 10.0 mi East 9.2 mph - N/A   Scattered Clouds
9:36 AM 75.2 °F 64.4 °F 69% 30.29 in 10.0 mi ENE 8.1 mph - N/A   Clear
9:56 AM 75.2 °F 64.4 °F 69% 30.29 in 10.0 mi ENE 9.2 mph - N/A   Clear
10:16 AM 77.0 °F 64.4 °F 65% 30.28 in 10.0 mi ENE 8.1 mph - N/A   Clear
10:36 AM 77.0 °F 64.4 °F 65% 30.28 in 10.0 mi ENE 10.4 mph - N/A   Clear
10:56 AM 78.8 °F 64.4 °F 61% 30.28 in 10.0 mi ENE 11.5 mph - N/A   Clear
11:16 AM 77.0 °F 62.6 °F 61% 30.28 in 10.0 mi East 6.9 mph - N/A   Clear
11:36 AM 78.8 °F 62.6 °F 57% 30.29 in 10.0 mi East 11.5 mph - N/A   Mostly Cloudy
11:56 AM 78.8 °F 62.6 °F 57% 30.29 in 10.0 mi ENE 10.4 mph 16.1 mph N/A   Overcast
12:16 PM 78.8 °F 64.4 °F 61% 30.29 in 10.0 mi East 5.8 mph - N/A   Overcast
12:57 PM 75.2 °F 64.4 °F 69% 30.30 in 10.0 mi East 5.8 mph - N/A   Overcast
1:16 PM 78.8 °F 64.4 °F 61% 30.31 in 10.0 mi ENE 10.4 mph - N/A   Mostly Cloudy
1:36 PM 75.2 °F 64.4 °F 69% 30.31 in 10.0 mi East 5.8 mph - N/A   Mostly Cloudy
1:56 PM 75.2 °F 64.4 °F 69% 30.30 in 10.0 mi East 10.4 mph - N/A   Mostly Cloudy
2:16 PM 78.8 °F 64.4 °F 61% 30.30 in 10.0 mi East 10.4 mph - N/A   Mostly Cloudy
2:36 PM 78.8 °F 62.6 °F 57% 30.29 in 10.0 mi East 8.1 mph - N/A   Mostly Cloudy
2:56 PM 78.8 °F 62.6 °F 57% 30.29 in 10.0 mi East 12.7 mph 17.3 mph N/A   Scattered Clouds
3:16 PM 78.8 °F 62.6 °F 57% 30.28 in 10.0 mi East 12.7 mph 16.1 mph N/A   Scattered Clouds
3:36 PM 78.8 °F 62.6 °F 57% 30.28 in 10.0 mi ENE 11.5 mph - N/A   Mostly Cloudy
3:56 PM 77.0 °F 62.6 °F 61% 30.28 in 10.0 mi East 9.2 mph - N/A   Overcast
4:16 PM 75.2 °F 62.6 °F 65% 30.28 in 10.0 mi ENE 12.7 mph - N/A   Overcast
4:36 PM 75.2 °F 62.6 °F 65% 30.28 in 10.0 mi ENE 11.5 mph - N/A   Mostly Cloudy
4:56 PM 75.2 °F 62.6 °F 65% 30.27 in 10.0 mi East 10.4 mph - N/A   Overcast
5:16 PM 75.2 °F 62.6 °F 65% 30.28 in 10.0 mi ENE 9.2 mph - N/A   Overcast
5:36 PM 73.4 °F 62.6 °F 69% 30.28 in 10.0 mi ENE 9.2 mph - N/A   Overcast
5:56 PM 73.4 °F 62.6 °F 69% 30.28 in 10.0 mi ENE 11.5 mph - N/A   Overcast
6:16 PM 73.4 °F 62.6 °F 69% 30.28 in 10.0 mi ENE 13.8 mph - N/A   Overcast
6:36 PM 73.4 °F 62.6 °F 69% 30.28 in 5.0 mi East 6.9 mph - N/A   Haze
6:56 PM 73.4 °F 62.6 °F 69% 30.27 in 10.0 mi East 4.6 mph - N/A   Overcast
7:16 PM 73.4 °F 62.6 °F 69% 30.28 in 10.0 mi East 9.2 mph - N/A   Mostly Cloudy
7:36 PM 71.6 °F 60.8 °F 69% 30.28 in 10.0 mi East 8.1 mph - N/A   Scattered Clouds
7:56 PM 71.6 °F 60.8 °F 69% 30.28 in 10.0 mi East 4.6 mph - N/A   Scattered Clouds
8:16 PM 71.6 °F 62.6 °F 73% 30.27 in 10.0 mi East 6.9 mph - N/A   Scattered Clouds
8:36 PM 69.8 °F 62.6 °F 78% 30.27 in 10.0 mi East 5.8 mph - N/A   Mostly Cloudy
8:56 PM 69.8 °F 62.6 °F 78% 30.27 in 10.0 mi ENE 3.5 mph - N/A   Overcast
9:16 PM 69.8 °F 62.6 °F 78% 30.27 in 10.0 mi ENE 4.6 mph - N/A   Overcast
9:36 PM 69.8 °F 62.6 °F 78% 30.28 in 10.0 mi ENE 4.6 mph - N/A   Mostly Cloudy
9:56 PM 69.8 °F 62.6 °F 78% 30.27 in 10.0 mi Calm Calm - N/A   Scattered Clouds
10:16 PM 69.8 °F 62.6 °F 78% 30.27 in 10.0 mi East 3.5 mph - N/A   Clear
10:37 PM 68.0 °F 62.6 °F 83% 30.27 in 10.0 mi Calm Calm - N/A   Clear
10:56 PM 68.0 °F 62.6 °F 83% 30.27 in 10.0 mi Calm Calm - N/A   Clear
11:16 PM 68.0 °F 62.6 °F 83% 30.27 in 10.0 mi East 4.6 mph - N/A   Clear
11:36 PM 68.0 °F 62.6 °F 83% 30.27 in 10.0 mi East 4.6 mph - N/A   Clear
11:56 PM 66.2 °F 62.6 °F 88% 30.26 in 10.0 mi East 5.8 mph - N/A   Clear